STARLINK-5933 (55961 NORAD) Tracking and Keplerian Element Data

This shows tracking and keplerian element data for the satellite.

Feedback or suggestion? Click here.




ElementValue
Catalog55961
NameSTARLINK-5933
Epoch Orbit839
Epoch Day126.86573201
Epoch Year2023
RAAN40.2002
Inclination69.9983
Eccentricity0.0003818
Argument of Perigee261.9696
Mean Anonmoly98.1067
Mean Motion15.69943386
Decay Rate2.019E-05
L11 55961U 23037AZ 23126.86573201 .00002019 00000+0 18539-4 0 9998
L22 55961 69.9983 40.2002 0003818 261.9696 98.1067 15.69943386 8394



Live tracking and technical data element details for STARLINK-5933 (NORAD 55961). STARLINK-5933 can be tracked NOW for your location showing map with azimuth and elevation plus other details from your city location.







IsCatalogInMostPopularTable: catalog: 55961, numindb: 8
Update: records affected: 1



GetName: 55961 STARLINK-5933

Hit Count: updated at: Tue, 06 Jun 2023 02:51:39 GMT